Western Lake Ontario: Past 24 Hour Conditions

 

Gore Bay-Manitoulin Airport

03:00 PM EDT 23 August 2014
This table is a summary of hourly weather conditions for the past 24 hours.
Date / Time
(EDT)
Wind(knots) Conditions Visibility(km) Pressure(kPa) Air tempC) Relative humidity(%) Dew pointC) Humidex
23 August 2014
15:00 WSW 6 Partly Cloudy 16 102.0 24 70 19 31
14:00 NW 2 Mostly Cloudy 16 102.0 23 74 18 29
13:00 S 6 Cloudy 16 102.0 23 72 18 29
12:00 E 7 Mostly Cloudy 16 102.0 23 72 18 29
11:00 E 8 Cloudy 16 102.0 22 79 18 28
10:00 E 6 Cloudy 16 102.0 20 87 18 26
9:00 E 7 Cloudy 16 102.0 19 91 18 *
8:00 E 8 Cloudy 16 101.9 19 93 18 *
7:00 NE 5 Cloudy 16 101.9 19 94 18 *
6:00 NNE 4 Cloudy 15 101.9 19 97 18 *
5:00 NNE 4 Cloudy 16 101.8 19 96 18 *
4:00 N 3 Cloudy 13 101.8 19 98 18 *
3:00 NE 3 Cloudy 16 101.8 19 95 18 *
2:00 NE 5 Mostly Cloudy 16 101.8 19 95 18 *
1:00 ENE 3 Partly Cloudy 16 101.8 18 96 17 *
0:00 ESE 3 Clear 16 101.8 18 95 17 *
22 August 2014
23:00 ENE 5 Partly Cloudy 16 101.8 19 93 18 *
22:00 E 6 Mainly Clear 16 101.8 19 94 18 *
21:00 ENE 5 Cloudy 16 101.7 20 90 19 27
20:00 NE 4 Sunny 16 101.7 21 83 18 27
19:00 NNE 6 Sunny 16 101.7 22 78 18 28
18:00 NE 8 Sunny 16 101.7 23 75 18 29
17:00 ENE 8 Sunny 16 101.7 23 74 18 30
16:00 N 7 Partly Cloudy 16 101.7 23 75 19 30
15:00 N 2 Mostly Cloudy 16 101.7 23 77 19 29
 
Map of Great Lakes - Lake Erie and Lake Ontario marine weather areas Egbert N Huron - 45003 W Erie - 45005 S Huron - 45008 Lake Ontario - 45012 Port Stanley - 45132 Prince Edward Point - 45135 Georgian Bay - 45137 Grimsby - 45139 Port Colborne - 45142 South Georgian Bay - 45143 Lake St Clair - 45147 South Lake Huron - 45149 Lake Simcoe - 45151 Lake Nipissing - 45152 North Channel - 45154 Ajax - 45159 Sault Ste. Marie Airport Greater Sudbury Airport North Bay Airport Gore Bay-Manitoulin Airport Great Duck Island Brockville Grenadier Island Kemptville Kingston Airport Collingwood Lagoon City Muskoka Airport Parry Sound Harbour Lake Simcoe Regional Airport Wiarton Airport Goderich Sarnia Chris Hadfield Airport Tobermory Harrow AAFC Port Weller St. Catharines Airport Southeast Shoal Vineland Station Welland-Pelham Windsor Airport Burlington Lift Bridge Cobourg Hamilton Munro Int'l Airport Oshawa Municipal Airport Point Petre Toronto City Centre Airport Toronto Pearson Int'l Airport CFB Trenton Peterborough Municipal Airport Killarney Western Islands CFB Borden Cove Island Long Point Port Colborne Erieau Point Pelee Toronto Buttonville Municipal Airport
Legend: buoyBuoy land stationLand Station » US Marine Weather